N178WP KSAN-KSFO

Flight info

Callsign N178WP
Flight time 1h 20m
Altitude 42000
Route PADRZ2 IKAYE RIZIN SPLNT STOKD SERFR SERFR4
Aircraft C25B/L-SDE2E3FGHRWXY/LB1

Departure

Time 2026-04-25 21:03
Airport San Diego International Airport (KSAN)

Arrival

Time 2026-04-25 22:23
Airport San Francisco International Airport (KSFO)
Time Latitude Longitude Altitude Speed Heading
2026-04-25 20:18 32.73412 -117.17976 22 ft 0 kts 101°
2026-04-25 20:58 32.73410 -117.17968 22 ft 4 kts 114°
2026-04-25 20:58 32.73371 -117.17949 21 ft 8 kts 176°
2026-04-25 20:58 32.73313 -117.17966 20 ft 10 kts 195°
2026-04-25 20:59 32.73274 -117.17979 19 ft 1 kts 200°
2026-04-25 20:59 32.73233 -117.17963 17 ft 11 kts 126°
2026-04-25 20:59 32.73205 -117.17869 17 ft 13 kts 106°
2026-04-25 20:59 32.73178 -117.17760 18 ft 14 kts 106°
2026-04-25 21:00 32.73150 -117.17650 18 ft 12 kts 106°
2026-04-25 21:00 32.73143 -117.17617 17 ft 12 kts 105°
2026-04-25 21:00 32.73106 -117.17562 17 ft 0 kts 143°
2026-04-25 21:02 32.73103 -117.17559 17 ft 4 kts 143°
2026-04-25 21:02 32.73056 -117.17529 18 ft 9 kts 176°
2026-04-25 21:02 32.73019 -117.17572 18 ft 10 kts 282°
2026-04-25 21:02 32.73090 -117.17861 15 ft 88 kts 286°
2026-04-25 21:03 32.73350 -117.18882 703 ft 151 kts 285°
2026-04-25 21:03 32.73807 -117.20299 1719 ft 211 kts 297°
2026-04-25 21:03 32.74707 -117.21782 3306 ft 231 kts 305°
2026-04-25 21:03 32.75623 -117.23400 5043 ft 236 kts 300°
2026-04-25 21:04 32.76411 -117.24963 6591 ft 211 kts 298°
2026-04-25 21:04 32.77170 -117.26453 7570 ft 214 kts 298°
2026-04-25 21:04 32.77945 -117.27982 8627 ft 217 kts 296°
2026-04-25 21:04 32.78739 -117.29505 9932 ft 217 kts 295°
2026-04-25 21:05 32.79516 -117.31038 11152 ft 217 kts 293°
2026-04-25 21:05 32.80391 -117.32533 12295 ft 225 kts 300°
2026-04-25 21:05 32.81366 -117.33994 13444 ft 225 kts 296°
2026-04-25 21:05 32.82314 -117.35491 14513 ft 229 kts 296°
2026-04-25 21:06 32.83291 -117.37011 15526 ft 233 kts 296°
2026-04-25 21:06 32.84286 -117.38551 16568 ft 237 kts 297°
2026-04-25 21:06 32.85299 -117.40119 17610 ft 240 kts 297°
2026-04-25 21:06 32.85640 -117.40653 17960 ft 242 kts 297°
2026-04-25 21:07 32.87369 -117.43334 19450 ft 249 kts 297°
2026-04-25 21:07 32.88435 -117.44987 20324 ft 254 kts 297°
2026-04-25 21:07 32.89514 -117.46666 21201 ft 258 kts 297°
2026-04-25 21:07 32.90618 -117.48379 22083 ft 263 kts 297°
2026-04-25 21:08 32.91722 -117.50100 22959 ft 267 kts 297°
2026-04-25 21:08 32.92866 -117.51874 23803 ft 272 kts 297°
2026-04-25 21:08 32.94017 -117.53670 24620 ft 273 kts 297°
2026-04-25 21:08 32.95176 -117.55468 25467 ft 274 kts 296°
2026-04-25 21:09 32.97506 -117.59104 27205 ft 278 kts 296°
2026-04-25 21:09 32.98282 -117.60319 27780 ft 279 kts 296°
2026-04-25 21:09 32.99871 -117.62796 28924 ft 282 kts 295°
2026-04-25 21:10 33.00660 -117.64032 29473 ft 284 kts 295°
2026-04-25 21:10 33.01864 -117.65913 30263 ft 287 kts 295°
2026-04-25 21:10 33.03081 -117.67817 30943 ft 290 kts 295°
2026-04-25 21:10 33.04309 -117.69736 31626 ft 292 kts 294°
2026-04-25 21:11 33.05546 -117.71674 32296 ft 295 kts 294°
2026-04-25 21:11 33.06967 -117.73530 32928 ft 310 kts 302°
2026-04-25 21:11 33.08624 -117.75242 33560 ft 318 kts 305°
2026-04-25 21:11 33.10322 -117.76956 34156 ft 321 kts 304°
2026-04-25 21:12 33.12030 -117.78698 34692 ft 323 kts 304°
2026-04-25 21:12 33.13743 -117.80448 35221 ft 326 kts 305°
2026-04-25 21:12 33.15411 -117.82145 35716 ft 329 kts 305°
2026-04-25 21:12 33.16412 -117.83164 36011 ft 330 kts 305°
2026-04-25 21:13 33.18763 -117.85557 36684 ft 334 kts 305°
2026-04-25 21:13 33.20438 -117.87441 37151 ft 328 kts 300°
2026-04-25 21:13 33.22054 -117.89400 37628 ft 333 kts 301°
2026-04-25 21:13 33.23714 -117.91353 37983 ft 339 kts 302°
2026-04-25 21:14 33.25421 -117.93388 37992 ft 353 kts 302°
2026-04-25 21:14 33.27189 -117.95505 37996 ft 364 kts 302°
2026-04-25 21:14 33.30789 -117.99779 37993 ft 367 kts 302°
2026-04-25 21:15 33.34386 -118.04086 37991 ft 365 kts 302°
2026-04-25 21:15 33.37909 -118.08301 37997 ft 364 kts 302°
2026-04-25 21:16 33.41452 -118.12547 37997 ft 364 kts 302°
2026-04-25 21:16 33.45026 -118.16835 38000 ft 363 kts 302°
2026-04-25 21:17 33.48524 -118.21037 38000 ft 363 kts 302°
2026-04-25 21:17 33.51979 -118.25193 37999 ft 363 kts 302°
2026-04-25 21:18 33.55535 -118.29474 38004 ft 361 kts 302°
2026-04-25 21:18 33.59078 -118.33745 37997 ft 361 kts 302°
2026-04-25 21:19 33.61824 -118.37060 37990 ft 361 kts 302°
2026-04-25 21:19 33.65367 -118.41341 37988 ft 361 kts 302°
2026-04-25 21:20 33.68308 -118.44897 37988 ft 360 kts 302°
2026-04-25 21:20 33.72411 -118.49867 37987 ft 360 kts 302°
2026-04-25 21:21 33.75901 -118.54101 37985 ft 361 kts 302°
2026-04-25 21:21 33.79431 -118.58386 37987 ft 360 kts 302°
2026-04-25 21:22 33.82959 -118.62677 37984 ft 361 kts 302°
2026-04-25 21:22 33.86491 -118.66976 37979 ft 361 kts 302°
2026-04-25 21:23 33.90024 -118.71281 37977 ft 361 kts 302°
2026-04-25 21:23 33.93435 -118.75445 37978 ft 361 kts 302°
2026-04-25 21:24 33.96964 -118.79760 37975 ft 363 kts 302°
2026-04-25 21:24 34.00431 -118.83999 37983 ft 365 kts 302°
2026-04-25 21:25 34.03805 -118.88129 37986 ft 364 kts 302°
2026-04-25 21:25 34.07363 -118.92495 37989 ft 365 kts 302°
2026-04-25 21:26 34.10918 -118.96861 37996 ft 365 kts 303°
2026-04-25 21:26 34.14350 -119.01318 37997 ft 355 kts 296°
2026-04-25 21:27 34.16991 -119.06254 37976 ft 349 kts 291°
2026-04-25 21:27 34.19514 -119.11104 37968 ft 350 kts 291°
2026-04-25 21:28 34.22064 -119.16065 37981 ft 350 kts 291°
2026-04-25 21:28 34.24637 -119.21062 37980 ft 350 kts 291°
2026-04-25 21:29 34.27208 -119.26066 37984 ft 351 kts 291°
2026-04-25 21:29 34.29785 -119.31089 37979 ft 352 kts 291°
2026-04-25 21:30 34.32363 -119.36121 37980 ft 352 kts 291°
2026-04-25 21:30 34.34506 -119.40311 37973 ft 353 kts 291°
2026-04-25 21:31 34.37532 -119.46232 37965 ft 354 kts 291°
2026-04-25 21:31 34.40063 -119.51192 37971 ft 355 kts 291°
2026-04-25 21:32 34.43279 -119.55915 37970 ft 370 kts 304°
2026-04-25 21:32 34.46897 -119.60352 37973 ft 370 kts 304°
2026-04-25 21:33 34.50509 -119.64799 37979 ft 369 kts 304°
2026-04-25 21:33 34.54090 -119.69212 37981 ft 370 kts 304°
2026-04-25 21:34 34.57708 -119.73672 37983 ft 371 kts 304°
2026-04-25 21:34 34.61335 -119.78148 37973 ft 372 kts 304°
2026-04-25 21:35 34.64957 -119.82630 37972 ft 372 kts 304°
2026-04-25 21:35 34.68594 -119.87134 37977 ft 375 kts 304°
2026-04-25 21:36 34.72256 -119.91675 37976 ft 376 kts 304°
2026-04-25 21:36 34.75899 -119.96196 37985 ft 376 kts 305°
2026-04-25 21:37 34.78944 -119.99981 37984 ft 375 kts 304°
2026-04-25 21:37 34.83166 -120.05228 37979 ft 366 kts 305°
2026-04-25 21:38 34.86678 -120.09615 37975 ft 358 kts 304°
2026-04-25 21:38 34.90132 -120.13920 37976 ft 352 kts 304°
2026-04-25 21:39 34.93527 -120.18168 37978 ft 347 kts 305°
2026-04-25 21:39 34.96858 -120.22337 37976 ft 344 kts 304°
2026-04-25 21:40 35.00181 -120.26500 37976 ft 340 kts 304°
2026-04-25 21:40 35.03458 -120.30617 37986 ft 337 kts 304°
2026-04-25 21:41 35.06725 -120.34714 37983 ft 336 kts 304°
2026-04-25 21:41 35.10057 -120.38733 37985 ft 339 kts 308°
2026-04-25 21:42 35.13537 -120.42608 37982 ft 337 kts 308°
2026-04-25 21:42 35.16969 -120.46465 37982 ft 337 kts 308°
2026-04-25 21:43 35.20420 -120.50327 37989 ft 337 kts 308°
2026-04-25 21:43 35.23881 -120.54217 37988 ft 337 kts 308°
2026-04-25 21:44 35.27338 -120.58102 37990 ft 338 kts 308°
2026-04-25 21:45 35.32539 -120.63958 37989 ft 339 kts 308°
2026-04-25 21:45 35.35986 -120.67843 37993 ft 339 kts 308°
2026-04-25 21:46 35.39459 -120.71766 37994 ft 340 kts 309°
2026-04-25 21:46 35.42937 -120.75697 37988 ft 340 kts 309°
2026-04-25 21:47 35.46332 -120.79528 37991 ft 322 kts 308°
2026-04-25 21:47 35.49663 -120.83032 37989 ft 315 kts 315°
2026-04-25 21:48 35.53082 -120.86202 37980 ft 302 kts 313°
2026-04-25 21:48 35.54742 -120.87752 37986 ft 298 kts 314°
2026-04-25 21:48 35.56390 -120.89273 37986 ft 294 kts 314°
2026-04-25 21:48 35.58022 -120.90782 37985 ft 291 kts 313°
2026-04-25 21:49 35.59625 -120.92276 37986 ft 288 kts 313°
2026-04-25 21:49 35.61214 -120.93752 37987 ft 286 kts 313°
2026-04-25 21:49 35.62792 -120.95223 37990 ft 283 kts 313°
2026-04-25 21:49 35.64361 -120.96677 37971 ft 281 kts 313°
2026-04-25 21:50 35.65910 -120.98120 37980 ft 278 kts 313°
2026-04-25 21:50 35.67447 -120.99551 37985 ft 275 kts 313°
2026-04-25 21:50 35.68965 -121.00965 37976 ft 273 kts 313°
2026-04-25 21:50 35.69966 -121.01899 37971 ft 272 kts 313°
2026-04-25 21:51 35.71951 -121.03747 37968 ft 269 kts 313°
2026-04-25 21:51 35.73436 -121.05137 37971 ft 268 kts 313°
2026-04-25 21:51 35.74916 -121.06515 37965 ft 266 kts 313°
2026-04-25 21:51 35.76388 -121.07890 37965 ft 265 kts 313°
2026-04-25 21:52 35.77852 -121.09260 37968 ft 263 kts 313°
2026-04-25 21:52 35.79306 -121.10617 37972 ft 262 kts 313°
2026-04-25 21:52 35.80752 -121.11968 37962 ft 260 kts 313°
2026-04-25 21:52 35.82198 -121.13321 37968 ft 260 kts 313°
2026-04-25 21:53 35.83639 -121.14671 37968 ft 259 kts 313°
2026-04-25 21:53 35.85075 -121.16018 37968 ft 259 kts 313°
2026-04-25 21:53 35.86314 -121.17173 37964 ft 259 kts 313°
2026-04-25 21:53 35.87537 -121.18326 37964 ft 258 kts 313°
2026-04-25 21:54 35.88970 -121.19663 37956 ft 258 kts 313°
2026-04-25 21:54 35.90413 -121.21027 37719 ft 266 kts 313°
2026-04-25 21:54 35.91898 -121.22423 37382 ft 278 kts 314°
2026-04-25 21:54 35.93471 -121.23902 37020 ft 290 kts 314°
2026-04-25 21:55 35.95010 -121.25344 36650 ft 301 kts 314°
2026-04-25 21:55 35.96750 -121.26980 36235 ft 311 kts 314°
2026-04-25 21:55 35.98324 -121.28458 35863 ft 320 kts 314°
2026-04-25 21:55 36.00122 -121.30152 35433 ft 329 kts 314°
2026-04-25 21:56 36.01631 -121.31568 35067 ft 336 kts 315°
2026-04-25 21:56 36.02826 -121.32694 34784 ft 341 kts 314°
2026-04-25 21:56 36.04444 -121.34220 34392 ft 346 kts 314°
2026-04-25 21:56 36.07023 -121.36626 33757 ft 356 kts 317°
2026-04-25 21:57 36.09148 -121.38264 33253 ft 362 kts 321°
2026-04-25 21:57 36.11290 -121.39917 32778 ft 364 kts 321°
2026-04-25 21:57 36.12736 -121.41059 32446 ft 366 kts 321°
2026-04-25 21:57 36.15078 -121.42902 31919 ft 369 kts 322°
2026-04-25 21:58 36.16194 -121.43768 31668 ft 370 kts 322°
2026-04-25 21:58 36.18177 -121.45312 31225 ft 371 kts 323°
2026-04-25 21:58 36.20239 -121.46918 30762 ft 372 kts 323°
2026-04-25 21:58 36.22430 -121.48635 30270 ft 373 kts 323°
2026-04-25 21:59 36.24112 -121.49953 29869 ft 375 kts 324°
2026-04-25 21:59 36.26329 -121.51684 29342 ft 376 kts 324°
2026-04-25 21:59 36.28540 -121.53413 28843 ft 375 kts 324°
2026-04-25 22:00 36.32476 -121.56502 27962 ft 374 kts 325°
2026-04-25 22:00 36.34699 -121.58248 27467 ft 373 kts 325°
2026-04-25 22:00 36.36890 -121.59964 26978 ft 372 kts 325°
2026-04-25 22:00 36.39076 -121.61685 26490 ft 371 kts 325°
2026-04-25 22:01 36.41250 -121.63391 26006 ft 369 kts 326°
2026-04-25 22:01 36.43412 -121.65096 25522 ft 367 kts 326°
2026-04-25 22:01 36.45538 -121.66767 25047 ft 365 kts 326°
2026-04-25 22:01 36.46967 -121.67892 24726 ft 364 kts 326°
2026-04-25 22:02 36.49823 -121.70147 24096 ft 363 kts 326°
2026-04-25 22:02 36.51887 -121.71773 23628 ft 364 kts 326°
2026-04-25 22:02 36.54060 -121.73494 23096 ft 377 kts 326°
2026-04-25 22:02 36.56255 -121.75230 22599 ft 390 kts 326°
2026-04-25 22:03 36.58201 -121.76772 22156 ft 399 kts 327°
2026-04-25 22:03 36.60576 -121.78645 21625 ft 404 kts 327°
2026-04-25 22:03 36.62888 -121.80476 21103 ft 394 kts 327°
2026-04-25 22:03 36.65172 -121.82291 20578 ft 386 kts 327°
2026-04-25 22:04 36.67426 -121.84076 20070 ft 379 kts 327°
2026-04-25 22:04 36.69346 -121.85603 19638 ft 374 kts 327°
2026-04-25 22:04 36.71315 -121.87165 19193 ft 370 kts 327°
2026-04-25 22:04 36.71410 -121.87241 19174 ft 370 kts 327°
2026-04-25 22:06 36.73081 -121.88542 18816 ft 366 kts 329°
2026-04-25 22:06 36.75426 -121.89728 18335 ft 363 kts 343°
2026-04-25 22:06 36.77449 -121.90352 17901 ft 361 kts 347°
2026-04-25 22:06 36.79983 -121.91058 17439 ft 357 kts 347°
2026-04-25 22:07 36.82104 -121.91634 17036 ft 356 kts 348°
2026-04-25 22:07 36.83734 -121.92088 16714 ft 356 kts 347°
2026-04-25 22:07 36.86252 -121.92798 16225 ft 355 kts 348°
2026-04-25 22:07 36.88366 -121.93387 15810 ft 354 kts 348°
2026-04-25 22:08 36.90195 -121.93902 15455 ft 353 kts 348°
2026-04-25 22:08 36.92219 -121.94463 15060 ft 353 kts 348°
2026-04-25 22:08 36.94639 -121.95145 14588 ft 346 kts 348°
2026-04-25 22:08 36.96726 -121.95888 14173 ft 340 kts 342°
2026-04-25 22:09 36.98647 -121.96685 13785 ft 335 kts 342°
2026-04-25 22:09 37.00631 -121.97439 13367 ft 331 kts 343°
2026-04-25 22:09 37.01099 -121.97613 13269 ft 330 kts 343°
2026-04-25 22:09 37.03208 -121.98426 12849 ft 326 kts 342°
2026-04-25 22:10 37.04262 -121.98841 12637 ft 325 kts 342°
2026-04-25 22:10 37.05464 -121.99309 12401 ft 323 kts 342°
2026-04-25 22:10 37.07492 -122.00108 11996 ft 321 kts 342°
2026-04-25 22:10 37.09599 -122.00927 11576 ft 320 kts 342°
2026-04-25 22:11 37.11722 -122.01753 11145 ft 319 kts 341°
2026-04-25 22:11 37.13829 -122.02581 10726 ft 314 kts 341°
2026-04-25 22:11 37.15907 -122.03391 10313 ft 311 kts 341°
2026-04-25 22:11 37.17965 -122.04196 9902 ft 309 kts 341°
2026-04-25 22:12 37.20014 -122.04999 9469 ft 307 kts 341°
2026-04-25 22:12 37.22036 -122.05798 9061 ft 304 kts 341°
2026-04-25 22:12 37.24054 -122.06583 8661 ft 302 kts 341°
2026-04-25 22:12 37.25384 -122.07105 8393 ft 301 kts 341°
2026-04-25 22:13 37.27478 -122.07929 7966 ft 287 kts 341°
2026-04-25 22:13 37.28942 -122.08498 7686 ft 277 kts 341°
2026-04-25 22:13 37.30703 -122.09193 7334 ft 271 kts 341°
2026-04-25 22:13 37.32486 -122.09903 6976 ft 267 kts 341°
2026-04-25 22:14 37.33919 -122.10463 6695 ft 264 kts 341°
2026-04-25 22:14 37.35175 -122.10959 6448 ft 262 kts 341°
2026-04-25 22:14 37.36913 -122.11650 6089 ft 260 kts 341°
2026-04-25 22:14 37.38392 -122.12187 5896 ft 254 kts 344°
2026-04-25 22:15 37.39932 -122.12682 5644 ft 252 kts 343°
2026-04-25 22:15 37.41618 -122.13289 5329 ft 252 kts 342°
2026-04-25 22:15 37.42897 -122.13735 5086 ft 246 kts 344°
2026-04-25 22:16 37.45822 -122.14728 4518 ft 227 kts 342°
2026-04-25 22:16 37.47283 -122.15231 4234 ft 223 kts 342°
2026-04-25 22:16 37.48680 -122.15709 3970 ft 219 kts 342°
2026-04-25 22:16 37.49982 -122.16160 3723 ft 216 kts 341°
2026-04-25 22:17 37.51425 -122.16659 3456 ft 214 kts 341°
2026-04-25 22:17 37.52741 -122.17351 3191 ft 204 kts 321°
2026-04-25 22:17 37.53719 -122.18438 3002 ft 195 kts 308°
2026-04-25 22:17 37.54425 -122.19805 2793 ft 180 kts 294°
2026-04-25 22:18 37.54997 -122.21107 2568 ft 162 kts 296°
2026-04-25 22:18 37.55513 -122.22328 2363 ft 156 kts 293°
2026-04-25 22:18 37.56005 -122.23522 2194 ft 146 kts 295°
2026-04-25 22:18 37.56462 -122.24582 1994 ft 131 kts 293°
2026-04-25 22:19 37.56863 -122.25575 1826 ft 125 kts 296°
2026-04-25 22:19 37.57272 -122.26510 1669 ft 119 kts 294°
2026-04-25 22:19 37.57537 -122.27187 1547 ft 115 kts 294°
2026-04-25 22:19 37.57907 -122.28029 1408 ft 111 kts 296°
2026-04-25 22:20 37.58211 -122.28784 1281 ft 106 kts 293°
2026-04-25 22:20 37.58538 -122.29554 1129 ft 101 kts 296°
2026-04-25 22:20 37.58842 -122.30275 1009 ft 99 kts 292°
2026-04-25 22:20 37.59155 -122.31036 868 ft 97 kts 294°
2026-04-25 22:21 37.59405 -122.31606 772 ft 95 kts 293°
2026-04-25 22:21 37.59680 -122.32311 663 ft 98 kts 290°
2026-04-25 22:21 37.59896 -122.32831 579 ft 104 kts 294°
2026-04-25 22:21 37.60222 -122.33525 456 ft 106 kts 294°
2026-04-25 22:22 37.60518 -122.34275 335 ft 103 kts 292°
2026-04-25 22:22 37.60786 -122.34904 259 ft 103 kts 295°
2026-04-25 22:22 37.61065 -122.35563 148 ft 102 kts 296°
2026-04-25 22:22 37.61363 -122.36290 32 ft 93 kts 298°
2026-04-25 22:23 37.61462 -122.36524 18 ft 86 kts 297°
2026-04-25 22:23 37.61673 -122.37019 15 ft 32 kts 297°
2026-04-25 22:23 37.61717 -122.37127 16 ft 20 kts 307°
2026-04-25 22:23 37.61783 -122.37147 15 ft 14 kts 21°
2026-04-25 22:24 37.61817 -122.37125 14 ft 0 kts 28°
2026-04-25 22:24 37.61845 -122.37102 14 ft 11 kts 28°
2026-04-25 22:25 37.61932 -122.37045 11 ft 17 kts 28°
2026-04-25 22:25 37.62025 -122.36986 10 ft 13 kts
2026-04-25 22:25 37.62064 -122.37032 9 ft 5 kts 296°
2026-04-25 22:25 37.62088 -122.37092 9 ft 13 kts 298°
2026-04-25 22:26 37.62144 -122.37227 9 ft 20 kts 297°
2026-04-25 22:26 37.62209 -122.37385 9 ft 20 kts 297°
2026-04-25 22:26 37.62271 -122.37535 13 ft 19 kts 297°
2026-04-25 22:26 37.62327 -122.37676 14 ft 16 kts 294°
2026-04-25 22:27 37.62377 -122.37785 16 ft 13 kts 298°
2026-04-25 22:27 37.62423 -122.37897 15 ft 16 kts 297°
2026-04-25 22:27 37.62480 -122.38031 13 ft 19 kts 298°
2026-04-25 22:27 37.62513 -122.38108 12 ft 0 kts 295°
2026-04-25 22:28 37.62515 -122.38113 12 ft 4 kts 295°
2026-04-25 22:28 37.62546 -122.38180 11 ft 12 kts 300°
2026-04-25 22:28 37.62588 -122.38285 9 ft 15 kts 299°
2026-04-25 22:28 37.62684 -122.38275 9 ft 17 kts 25°
2026-04-25 22:29 37.62773 -122.38212 8 ft 10 kts 34°
2026-04-25 22:29 37.62802 -122.38250 9 ft 7 kts 296°
2026-04-25 22:29 37.62814 -122.38281 9 ft 0 kts 296°